• In Germany
  • List of Countries
  • For 7 days
  • Water Temperature
  • Satellite Maps
  • Weather Map
  • Weather Widgets
  • user-avatar
    Login

    Hourly Weather New Brunswick

    Today, 21 November, Tuesday

    Time Temperature Precipitation Wind Pressure Humidity
    00:00 +4°C° 0 mm 4 mps 762 mmHg 51%
    01:00 +4°C° 0 mm 4 mps 763 mmHg 52%
    02:00 +3°C° 0 mm 4 mps 762 mmHg 54%
    03:00 +3°C° 0 mm 4 mps 762 mmHg 55%
    04:00 +3°C° 0 mm 4 mps 762 mmHg 57%
    05:00 +3°C° 0 mm 4 mps 762 mmHg 59%
    06:00 +3°C° 0 mm 4 mps 762 mmHg 61%
    07:00 +3°C° 0 mm 4 mps 762 mmHg 63%
    08:00 +5°C° 0 mm 5 mps 762 mmHg 58%
    09:00 +7°C° 0 mm 6 mps 762 mmHg 53%
    10:00 +9°C° 0 mm 6 mps 762 mmHg 48%
    11:00 +10°C° 0 mm 6 mps 762 mmHg 45%
    12:00 +11°C° 0 mm 6 mps 761 mmHg 42%
    13:00 +13°C° 0 mm 6 mps 761 mmHg 39%
    14:00 +12°C° 0 mm 5 mps 760 mmHg 40%
    15:00 +12°C° 0 mm 5 mps 760 mmHg 41%
    16:00 +12°C° 0 mm 5 mps 760 mmHg 42%
    17:00 +11°C° 0 mm 4 mps 760 mmHg 46%
    18:00 +10°C° 0 mm 4 mps 760 mmHg 50%
    19:00 +8°C° 0 mm 4 mps 761 mmHg 53%
    20:00 +8°C° 0 mm 4 mps 760 mmHg 59%
    21:00 +8°C° 0 mm 4 mps 760 mmHg 64%
    22:00 +8°C° 0 mm 4 mps 760 mmHg 69%
    23:00 +8°C° 0 mm 3 mps 760 mmHg 74%

    Tomorrow, 22 November, Wednesday

    Time Temperature Precipitation Wind Pressure Humidity
    00:00 +8°C° 0 mm 3 mps 759 mmHg 78%
    01:00 +8°C° 0 mm 3 mps 759 mmHg 82%
    02:00 +9°C° 0 mm 3 mps 758 mmHg 84%
    03:00 +9°C° 0 mm 3 mps 758 mmHg 85%
    04:00 +10°C° 0 mm 2 mps 758 mmHg 86%
    05:00 +9°C° 0 mm 2 mps 758 mmHg 88%
    06:00 +9°C° 0 mm 2 mps 758 mmHg 90%
    07:00 +9°C° 0 mm 2 mps 758 mmHg 92%
    08:00 +9°C° 0 mm 3 mps 758 mmHg 83%
    09:00 +10°C° 0 mm 4 mps 758 mmHg 73%
    10:00 +10°C° 0 mm 5 mps 758 mmHg 63%
    11:00 +10°C° 0 mm 5 mps 758 mmHg 59%
    12:00 +9°C° 0 mm 6 mps 758 mmHg 56%
    13:00 +9°C° 0 mm 6 mps 758 mmHg 52%
    14:00 +8°C° 0 mm 6 mps 759 mmHg 51%
    15:00 +7°C° 0 mm 6 mps 759 mmHg 49%
    16:00 +6°C° 0 mm 5 mps 759 mmHg 48%
    17:00 +5°C° 0 mm 5 mps 760 mmHg 51%
    18:00 +3°C° 0 mm 5 mps 761 mmHg 53%
    19:00 +2°C° 0 mm 5 mps 762 mmHg 56%
    20:00 +1°C° 0 mm 5 mps 762 mmHg 57%
    21:00 0°C° 0 mm 5 mps 762 mmHg 58%
    22:00 -1°C° 0 mm 5 mps 763 mmHg 59%
    23:00 -1°C° 0 mm 4 mps 763 mmHg 60%

    Day after tomorrow, 23 November, Thursday

    Time Temperature Precipitation Wind Pressure Humidity
    00:00 -1°C° 0 mm 4 mps 763 mmHg 60%
    01:00 -1°C° 0 mm 3 mps 763 mmHg 61%
    02:00 -1°C° 0 mm 3 mps 763 mmHg 62%
    03:00 -1°C° 0 mm 3 mps 762 mmHg 63%
    04:00 -1°C° 0 mm 3 mps 762 mmHg 64%
    05:00 -1°C° 0 mm 3 mps 762 mmHg 65%
    06:00 -1°C° 0 mm 2 mps 763 mmHg 65%
    07:00 -2°C° 0 mm 2 mps 763 mmHg 66%
    08:00 +1°C° 0 mm 2 mps 763 mmHg 60%
    09:00 +2°C° 0 mm 2 mps 763 mmHg 54%
    10:00 +3°C° 0 mm 2 mps 763 mmHg 47%
    11:00 +4°C° 0 mm 2 mps 762 mmHg 44%
    12:00 +5°C° 0 mm 2 mps 761 mmHg 40%
    13:00 +6°C° 0 mm 2 mps 760 mmHg 36%
    14:00 +6°C° 0 mm 2 mps 760 mmHg 38%
    15:00 +6°C° 0 mm 2 mps 759 mmHg 40%
    16:00 +6°C° 0 mm 2 mps 759 mmHg 42%
    17:00 +5°C° 0 mm 2 mps 759 mmHg 45%
    18:00 +4°C° 0 mm 2 mps 759 mmHg 47%
    19:00 +3°C° 0 mm 2 mps 759 mmHg 49%
    20:00 +3°C° 0 mm 2 mps 759 mmHg 51%
    21:00 +3°C° 0 mm 2 mps 759 mmHg 53%
    22:00 +3°C° 0 mm 2 mps 759 mmHg 54%
    23:00 +2°C° 0 mm 2 mps 759 mmHg 55%

    24 November, Friday

    Time Temperature Precipitation Wind Pressure Humidity
    00:00 +2°C° 0 mm 2 mps 759 mmHg 57%
    01:00 +2°C° 0 mm 2 mps 759 mmHg 58%
    02:00 +2°C° 0 mm 2 mps 759 mmHg 58%
    03:00 +1°C° 0 mm 2 mps 759 mmHg 59%
    04:00 +1°C° 0 mm 2 mps 759 mmHg 59%
    05:00 +1°C° 0 mm 2 mps 759 mmHg 60%
    06:00 +1°C° 0 mm 2 mps 759 mmHg 60%
    07:00 +1°C° 0 mm 2 mps 760 mmHg 61%
    08:00 +3°C° 0 mm 2 mps 760 mmHg 56%
    09:00 +4°C° 0 mm 2 mps 760 mmHg 52%
    10:00 +6°C° 0 mm 2 mps 760 mmHg 47%
    11:00 +8°C° 0 mm 1 mps 760 mmHg 45%
    12:00 +9°C° 0 mm 1 mps 759 mmHg 44%
    13:00 +10°C° 0 mm 1 mps 759 mmHg 42%
    14:00 +10°C° 0 mm 1 mps 759 mmHg 45%
    15:00 +9°C° 0 mm 1 mps 758 mmHg 48%
    16:00 +9°C° 0 mm 1 mps 758 mmHg 51%
    17:00 +8°C° 0 mm 1 mps 758 mmHg 53%
    18:00 +7°C° 0 mm 1 mps 759 mmHg 56%
    19:00 +6°C° 0 mm 1 mps 759 mmHg 59%
    20:00 +5°C° 0 mm 2 mps 758 mmHg 59%
    21:00 +4°C° 0 mm 2 mps 758 mmHg 60%
    22:00 +4°C° 0 mm 2 mps 758 mmHg 60%
    23:00 +4°C° 0 mm 2 mps 758 mmHg 61%

    25 November, Saturday

    Time Temperature Precipitation Wind Pressure Humidity
    00:00 +3°C° 0 mm 2 mps 757 mmHg 61%
    01:00 +3°C° 0 mm 2 mps 756 mmHg 62%
    02:00 +3°C° 0 mm 2 mps 756 mmHg 64%
    03:00 +3°C° 0 mm 2 mps 755 mmHg 65%
    04:00 +3°C° 0 mm 2 mps 755 mmHg 67%
    05:00 +3°C° 0 mm 2 mps 754 mmHg 69%
    06:00 +3°C° 0 mm 2 mps 754 mmHg 71%
    07:00 +3°C° 0 mm 2 mps 754 mmHg 74%
    08:00 +3°C° 0 mm 3 mps 753 mmHg 69%
    09:00 +5°C° 0 mm 3 mps 753 mmHg 65%
    10:00 +7°C° 0 mm 4 mps 753 mmHg 60%
    11:00 +7°C° 0 mm 4 mps 752 mmHg 60%
    12:00 +7°C° 0 mm 4 mps 751 mmHg 60%
    13:00 +8°C° 0 mm 4 mps 750 mmHg 60%
    14:00 +8°C° 0 mm 3 mps 750 mmHg 63%
    15:00 +8°C° 0 mm 3 mps 750 mmHg 65%
    16:00 +8°C° 0 mm 3 mps 750 mmHg 68%
    17:00 +7°C° 0 mm 3 mps 751 mmHg 72%
    18:00 +5°C° 0 mm 3 mps 751 mmHg 76%
    19:00 +4°C° 0 mm 3 mps 752 mmHg 80%
    20:00 +5°C° 0 mm 2 mps 751 mmHg 82%
    21:00 +5°C° 0 mm 2 mps 751 mmHg 83%
    22:00 +4°C° 0 mm 2 mps 751 mmHg 85%
    23:00 +4°C° 0 mm 2 mps 751 mmHg 85%

    26 November, Sunday

    Time Temperature Precipitation Wind Pressure Humidity
    00:00 +4°C° 0 mm 2 mps 751 mmHg 86%
    01:00 +4°C° 0 mm 2 mps 751 mmHg 87%
    02:00 +4°C° 0 mm 2 mps 751 mmHg 88%
    03:00 +3°C° 0 mm 2 mps 751 mmHg 89%
    04:00 +3°C° 0 mm 2 mps 750 mmHg 90%
    05:00 +3°C° 0 mm 2 mps 751 mmHg 89%
    06:00 +3°C° 0 mm 2 mps 751 mmHg 88%
    07:00 +2°C° 0 mm 3 mps 751 mmHg 87%
    08:00 +3°C° 0 mm 3 mps 751 mmHg 81%
    09:00 +4°C° 0 mm 3 mps 751 mmHg 75%
    10:00 +5°C° 0 mm 3 mps 751 mmHg 69%
    11:00 +5°C° 0.2 mm 4 mps 750 mmHg 67%
    12:00 +5°C° 0.2 mm 4 mps 750 mmHg 65%
    13:00 +5°C° 0.2 mm 5 mps 750 mmHg 62%
    14:00 +5°C° 0.1 mm 5 mps 750 mmHg 61%
    15:00 +5°C° 0.1 mm 5 mps 750 mmHg 59%
    16:00 +5°C° 0.1 mm 5 mps 751 mmHg 57%
    17:00 +3°C° 0 mm 5 mps 751 mmHg 59%
    18:00 +2°C° 0 mm 6 mps 752 mmHg 61%
    19:00 +1°C° 0 mm 6 mps 752 mmHg 63%
    20:00 -1°C° 0 mm 6 mps 753 mmHg 63%
    21:00 -1°C° 0 mm 6 mps 753 mmHg 63%
    22:00 -2°C° 0 mm 6 mps 753 mmHg 63%
    23:00 -2°C° 0 mm 6 mps 753 mmHg 63%
    Show more